| time (UTC) | temp C | wind direction | speed KPH | gust KPH | rain 1hr cm | rain 24hr cm | rain mn cm | humidity % | barometer mb |
| 20260507221532 | 27 | 238 | 4.8 | 12.9 | 0.00 | 0.00 | 0.00 | 55 | 1016.7 |
| 20260507221132 | 27 | 246 | 6.4 | 11.3 | 0.00 | 0.00 | 0.00 | 51 | 1016.8 |
| 20260507220732 | 27 | 236 | 3.2 | 11.3 | 0.00 | 0.00 | 0.00 | 52 | 1016.9 |
| 20260507220332 | 27 | 228 | 4.8 | 16.1 | 0.00 | 0.00 | 0.00 | 52 | 1016.9 |
| 20260507215932 | 27 | 258 | 3.2 | 16.1 | 0.00 | 0.00 | 0.00 | 52 | 1017.0 |
| 20260507215532 | 27 | 252 | 9.7 | 16.1 | 0.00 | 0.00 | 0.00 | 51 | 1017.0 |
| 20260507215132 | 27 | 258 | 3.2 | 12.9 | 0.00 | 0.00 | 0.00 | 51 | 1017.1 |
| 20260507214732 | 27 | 267 | 6.4 | 12.9 | 0.00 | 0.00 | 0.00 | 52 | 1017.1 |
| 20260507213932 | 27 | 249 | 8.0 | 16.1 | 0.00 | 0.00 | 0.00 | 53 | 1017.2 |
| 20260507213132 | 27 | 237 | 6.4 | 14.5 | 0.00 | 0.00 | 0.00 | 51 | 1017.2 |
| 20260507212732 | 27 | 295 | 6.4 | 12.9 | 0.00 | 0.00 | 0.00 | 50 | 1017.2 |
| 20260507212332 | 27 | 249 | 8.0 | 12.9 | 0.00 | 0.00 | 0.00 | 53 | 1017.3 |
| 20260507211532 | 27 | 246 | 1.6 | 12.9 | 0.00 | 0.00 | 0.00 | 52 | 1017.3 |
| 20260507210732 | 27 | 241 | 6.4 | 14.5 | 0.00 | 0.00 | 0.00 | 52 | 1017.4 |
| 20260507210332 | 27 | 210 | 4.8 | 14.5 | 0.00 | 0.00 | 0.00 | 52 | 1017.5 |
| 20260507205932 | 27 | 222 | 6.4 | 11.3 | 0.00 | 0.00 | 0.00 | 50 | 1017.6 |
| 20260507205532 | 26 | 311 | 1.6 | 12.9 | 0.00 | 0.00 | 0.00 | 54 | 1017.6 |
| 20260507205132 | 26 | 332 | 1.6 | 12.9 | 0.00 | 0.00 | 0.00 | 53 | 1017.6 |
| 20260507204732 | 26 | 356 | 6.4 | 14.5 | 0.00 | 0.00 | 0.00 | 52 | 1017.6 |
| 20260507204332 | 26 | 244 | 4.8 | 14.5 | 0.00 | 0.00 | 0.00 | 52 | 1017.7 |
| 20260507203932 | 26 | 289 | 1.6 | 11.3 | 0.00 | 0.00 | 0.00 | 53 | 1017.8 |
| 20260507203532 | 26 | 268 | 1.6 | 11.3 | 0.00 | 0.00 | 0.00 | 53 | 1017.8 |
| 20260507203132 | 26 | 262 | 1.6 | 17.7 | 0.00 | 0.00 | 0.00 | 51 | 1017.9 |
| 20260507202732 | 26 | 230 | 3.2 | 20.9 | 0.00 | 0.00 | 0.00 | 53 | 1017.8 |
| 20260507202332 | 26 | 243 | 11.3 | 20.9 | 0.00 | 0.00 | 0.00 | 54 | 1018.0 |
| 20260507201932 | 26 | 240 | 8.0 | 20.9 | 0.00 | 0.00 | 0.00 | 53 | 1018.0 |
| 20260507201132 | 26 | 255 | 9.7 | 17.7 | 0.00 | 0.00 | 0.00 | 54 | 1018.0 |
| 20260507200619 | 26 | 238 | 4.8 | 16.1 | 0.00 | 0.00 | 0.00 | 55 | 1018.0 |
| 20260507195819 | 26 | 205 | 6.4 | 20.9 | 0.00 | 0.00 | 0.00 | 54 | 1018.0 |
| 20260507195419 | 26 | 232 | 12.9 | 20.9 | 0.00 | 0.00 | 0.00 | 51 | 1018.0 |
| 20260507195019 | 26 | 253 | 11.3 | 19.3 | 0.00 | 0.00 | 0.00 | 52 | 1018.0 |
| 20260507194619 | 26 | 239 | 1.6 | 14.5 | 0.00 | 0.00 | 0.00 | 53 | 1018.1 |
| 20260507194219 | 26 | 234 | 4.8 | 16.1 | 0.00 | 0.00 | 0.00 | 54 | 1018.2 |
| 20260507193819 | 26 | 261 | 9.7 | 16.1 | 0.00 | 0.00 | 0.00 | 54 | 1018.1 |
| 20260507193419 | 25 | 243 | 6.4 | 16.1 | 0.00 | 0.00 | 0.00 | 56 | 1018.2 |
| 20260507193019 | 25 | 251 | 8.0 | 16.1 | 0.00 | 0.00 | 0.00 | 54 | 1018.2 |
| 20260507192619 | 26 | 261 | 8.0 | 14.5 | 0.00 | 0.00 | 0.00 | 55 | 1018.3 |
| 20260507192219 | 25 | 287 | 3.2 | 11.3 | 0.00 | 0.00 | 0.00 | 55 | 1018.3 |
| 20260507191819 | 25 | 317 | 1.6 | 6.4 | 0.00 | 0.00 | 0.00 | 56 | 1018.4 |
| 20260507191419 | 25 | 325 | 1.6 | 12.9 | 0.00 | 0.00 | 0.00 | 53 | 1018.4 |
| 20260507190619 | 25 | 205 | 6.4 | 16.1 | 0.00 | 0.00 | 0.00 | 56 | 1018.5 |
| 20260507185819 | 25 | 242 | 8.0 | 16.1 | 0.00 | 0.00 | 0.00 | 55 | 1018.6 |
| 20260507184619 | 25 | 263 | 4.8 | 11.3 | 0.00 | 0.00 | 0.00 | 57 | 1018.8 |
| 20260507183819 | 25 | 262 | 4.8 | 14.5 | 0.00 | 0.00 | 0.00 | 59 | 1018.9 |
| 20260507183419 | 25 | 238 | 6.4 | 14.5 | 0.00 | 0.00 | 0.00 | 60 | 1019.0 |
| 20260507183019 | 24 | 226 | 8.0 | 12.9 | 0.00 | 0.00 | 0.00 | 60 | 1019.0 |
| 20260507182219 | 24 | 256 | 4.8 | 16.1 | 0.00 | 0.00 | 0.00 | 59 | 1019.0 |
| 20260507181819 | 24 | 0 | 0.0 | 6.4 | 0.00 | 0.00 | 0.00 | 57 | 1019.0 |
| 20260507181419 | 24 | 338 | 3.2 | 6.4 | 0.00 | 0.00 | 0.00 | 59 | 1019.1 |
| 20260507180736 | 23 | 339 | 3.2 | 14.5 | 0.00 | 0.00 | 0.00 | 61 | 1019.1 |
| 20260507180336 | 23 | 265 | 4.8 | 9.7 | 0.00 | 0.00 | 0.00 | 60 | 1019.1 |
| 20260507175936 | 23 | 262 | 4.8 | 9.7 | 0.00 | 0.00 | 0.00 | 58 | 1019.1 |
| 20260507174736 | 23 | 250 | 3.2 | 11.3 | 0.00 | 0.00 | 0.00 | 59 | 1019.2 |
| 20260507174336 | 23 | 0 | 0.0 | 6.4 | 0.00 | 0.00 | 0.00 | 58 | 1019.2 |
| 20260507173936 | 23 | 250 | 1.6 | 8.0 | 0.00 | 0.00 | 0.00 | 60 | 1019.2 |
| 20260507173136 | 23 | 247 | 3.2 | 12.9 | 0.00 | 0.00 | 0.00 | 62 | 1019.3 |
| 20260507172736 | 23 | 259 | 3.2 | 6.4 | 0.00 | 0.00 | 0.00 | 62 | 1019.3 |
| 20260507172336 | 23 | 0 | 0.0 | 6.4 | 0.00 | 0.00 | 0.00 | 59 | 1019.3 |
| 20260507170336 | 22 | 258 | 1.6 | 4.8 | 0.00 | 0.00 | 0.00 | 63 | 1018.5 |
| 20260507165936 | 22 | 258 | 1.6 | 4.8 | 0.00 | 0.00 | 0.00 | 63 | 1018.4 |
| 20260507164537 | 21 | 258 | 1.6 | 4.8 | 0.00 | 0.00 | 0.00 | 66 | 1018.5 |
| 20260507163337 | 20 | 0 | 0.0 | 0.0 | 0.00 | 0.00 | 0.00 | 65 | 1018.5 |
| 20260507162649 | 20 | 0 | 0.0 | 1.6 | 0.00 | 0.00 | 0.00 | 67 | 1018.6 |
| 20260507161049 | 18 | 0 | 0.0 | 0.0 | 0.00 | 0.00 | 0.00 | 71 | 1018.6 |
| 20260507160650 | 18 | 0 | 0.0 | 0.0 | 0.00 | 0.00 | 0.00 | 72 | 1018.7 |
| 20260507160249 | 18 | 0 | 0.0 | 0.0 | 0.00 | 0.00 | 0.00 | 71 | 1018.7 |
| 20260507155849 | 18 | 0 | 0.0 | 0.0 | 0.00 | 0.00 | 0.00 | 74 | 1018.7 |
| 20260507155449 | 17 | 0 | 0.0 | 0.0 | 0.00 | 0.00 | 0.00 | 76 | 1018.7 |
| 20260507154650 | 17 | 0 | 0.0 | 0.0 | 0.00 | 0.00 | 0.00 | 77 | 1018.9 |
| 20260507154249 | 17 | 0 | 0.0 | 0.0 | 0.00 | 0.00 | 0.00 | 79 | 1018.9 |
| 20260507153849 | 17 | 0 | 0.0 | 0.0 | 0.00 | 0.00 | 0.00 | 80 | 1019.0 |
| 20260507153450 | 17 | 0 | 0.0 | 0.0 | 0.00 | 0.00 | 0.00 | 79 | 1019.0 |
| 20260507153049 | 16 | 0 | 0.0 | 0.0 | 0.00 | 0.00 | 0.00 | 80 | 1018.9 |
| 20260507151849 | 16 | 0 | 0.0 | 0.0 | 0.00 | 0.00 | 0.00 | 83 | 1019.0 |
| 20260507151449 | 16 | 0 | 0.0 | 0.0 | 0.00 | 0.00 | 0.00 | 84 | 1019.0 |
| 20260507151049 | 15 | 0 | 0.0 | 0.0 | 0.00 | 0.00 | 0.00 | 88 | 1019.0 |
| 20260507150649 | 15 | 0 | 0.0 | 0.0 | 0.00 | 0.00 | 0.00 | 90 | 1019.1 |
| 20260507150249 | 14 | 0 | 0.0 | 0.0 | 0.00 | 0.00 | 0.00 | 90 | 1019.2 |
| 20260507145849 | 14 | 0 | 0.0 | 0.0 | 0.00 | 0.00 | 0.00 | 91 | 1019.2 |
| 20260507145449 | 13 | 0 | 0.0 | 0.0 | 0.00 | 0.00 | 0.00 | 92 | 1019.2 |
| 20260507145049 | 13 | 0 | 0.0 | 0.0 | 0.00 | 0.00 | 0.00 | 93 | 1019.2 |
| 20260507144649 | 13 | 0 | 0.0 | 0.0 | 0.00 | 0.00 | 0.00 | 94 | 1019.2 |
| 20260507143849 | 12 | 0 | 0.0 | 0.0 | 0.00 | 0.00 | 0.00 | 94 | 1019.3 |
| 20260507143449 | 11 | 0 | 0.0 | 0.0 | 0.00 | 0.00 | 0.00 | 94 | 1019.2 |
| 20260507143049 | 11 | 0 | 0.0 | 0.0 | 0.00 | 0.00 | 0.00 | 94 | 1019.2 |
| 20260507142649 | 11 | 0 | 0.0 | 0.0 | 0.00 | 0.00 | 0.00 | 94 | 1019.2 |
| 20260507142249 | 11 | 0 | 0.0 | 0.0 | 0.00 | 0.00 | 0.00 | 94 | 1019.1 |
| 20260507141849 | 10 | 0 | 0.0 | 0.0 | 0.00 | 0.00 | 0.00 | 94 | 1019.1 |
| 20260507141449 | 10 | 0 | 0.0 | 0.0 | 0.00 | 0.00 | 0.00 | 94 | 1019.1 |
| 20260507141049 | 10 | 0 | 0.0 | 0.0 | 0.00 | 0.00 | 0.00 | 94 | 1019.1 |
| 20260507140649 | 10 | 0 | 0.0 | 0.0 | 0.00 | 0.00 | 0.00 | 94 | 1019.1 |
| 20260507140249 | 10 | 0 | 0.0 | 0.0 | 0.00 | 0.00 | 0.00 | 94 | 1019.0 |
| 20260507135849 | 10 | 0 | 0.0 | 0.0 | 0.00 | 0.00 | 0.00 | 94 | 1019.1 |
| 20260507135449 | 10 | 0 | 0.0 | 0.0 | 0.00 | 0.00 | 0.00 | 94 | 1019.0 |
| 20260507135049 | 9 | 0 | 0.0 | 0.0 | 0.00 | 0.00 | 0.00 | 93 | 1019.0 |
| 20260507134649 | 9 | 0 | 0.0 | 0.0 | 0.00 | 0.00 | 0.00 | 93 | 1019.0 |
| 20260507134249 | 9 | 0 | 0.0 | 0.0 | 0.00 | 0.00 | 0.00 | 93 | 1019.0 |
| 20260507133450 | 9 | 0 | 0.0 | 0.0 | 0.00 | 0.00 | 0.00 | 93 | 1018.9 |
| 20260507132649 | 9 | 0 | 0.0 | 0.0 | 0.00 | 0.00 | 0.00 | 93 | 1018.9 |
| 20260507132249 | 9 | 0 | 0.0 | 0.0 | 0.00 | 0.00 | 0.00 | 93 | 1018.8 |
| 20260507131849 | 9 | 0 | 0.0 | 0.0 | 0.00 | 0.00 | 0.00 | 93 | 1018.7 |
| 20260507131449 | 9 | 0 | 0.0 | 0.0 | 0.00 | 0.00 | 0.00 | 93 | 1018.7 |
| 20260507131049 | 9 | 0 | 0.0 | 0.0 | 0.00 | 0.00 | 0.00 | 93 | 1018.7 |
| 20260507130649 | 9 | 0 | 0.0 | 0.0 | 0.00 | 0.00 | 0.00 | 93 | 1018.7 |
| 20260507125849 | 9 | 0 | 0.0 | 0.0 | 0.00 | 0.00 | 0.00 | 93 | 1018.7 |
| 20260507125449 | 9 | 0 | 0.0 | 0.0 | 0.00 | 0.00 | 0.00 | 93 | 1018.7 |
| 20260507124649 | 9 | 0 | 0.0 | 0.0 | 0.00 | 0.00 | 0.00 | 93 | 1018.6 |
| 20260507124249 | 9 | 0 | 0.0 | 0.0 | 0.00 | 0.00 | 0.00 | 93 | 1018.6 |
| 20260507123849 | 9 | 0 | 0.0 | 0.0 | 0.00 | 0.00 | 0.00 | 93 | 1018.6 |
| 20260507123449 | 9 | 0 | 0.0 | 0.0 | 0.00 | 0.00 | 0.00 | 93 | 1018.6 |
| 20260507123049 | 9 | 0 | 0.0 | 0.0 | 0.00 | 0.00 | 0.00 | 93 | 1018.6 |
| 20260507122429 | 9 | 0 | 0.0 | 0.0 | 0.00 | 0.00 | 0.00 | 93 | 1018.6 |
| 20260507121630 | 9 | 0 | 0.0 | 0.0 | 0.00 | 0.00 | 0.00 | 93 | 1018.6 |
| 20260507121229 | 9 | 0 | 0.0 | 0.0 | 0.00 | 0.00 | 0.00 | 93 | 1018.6 |
| 20260507120030 | 9 | 0 | 0.0 | 0.0 | 0.00 | 0.00 | 0.00 | 93 | 1018.7 |
| 20260507115630 | 9 | 0 | 0.0 | 0.0 | 0.00 | 0.00 | 0.00 | 93 | 1018.7 |
| 20260507114829 | 9 | 0 | 0.0 | 0.0 | 0.00 | 0.00 | 0.00 | 93 | 1018.6 |
| 20260507113629 | 9 | 0 | 0.0 | 4.8 | 0.00 | 0.00 | 0.00 | 92 | 1018.7 |
| 20260507113231 | 9 | 0 | 0.0 | 4.8 | 0.00 | 0.00 | 0.00 | 92 | 1018.7 |
| 20260507112029 | 10 | 0 | 0.0 | 0.0 | 0.00 | 0.00 | 0.00 | 93 | 1018.7 |
| 20260507111629 | 10 | 0 | 0.0 | 0.0 | 0.00 | 0.00 | 0.00 | 93 | 1018.7 |
| 20260507111229 | 10 | 0 | 0.0 | 0.0 | 0.00 | 0.00 | 0.00 | 92 | 1018.7 |
| 20260507110430 | 10 | 0 | 0.0 | 0.0 | 0.00 | 0.00 | 0.00 | 92 | 1018.7 |
| 20260507105629 | 10 | 0 | 0.0 | 0.0 | 0.00 | 0.00 | 0.00 | 92 | 1018.7 |
| 20260507105229 | 10 | 0 | 0.0 | 0.0 | 0.00 | 0.00 | 0.00 | 92 | 1018.6 |
| 20260507104338 | 10 | 0 | 0.0 | 0.0 | 0.00 | 0.00 | 0.00 | 92 | 1018.6 |
| 20260507103938 | 10 | 0 | 0.0 | 0.0 | 0.00 | 0.00 | 0.00 | 92 | 1018.7 |
| 20260507103538 | 10 | 0 | 0.0 | 0.0 | 0.00 | 0.00 | 0.00 | 92 | 1018.7 |
| 20260507103138 | 10 | 0 | 0.0 | 0.0 | 0.00 | 0.00 | 0.00 | 92 | 1018.7 |
| 20260507102738 | 10 | 0 | 0.0 | 0.0 | 0.00 | 0.00 | 0.00 | 92 | 1018.8 |
| 20260507102338 | 10 | 0 | 0.0 | 0.0 | 0.00 | 0.00 | 0.00 | 92 | 1018.8 |
| 20260507101938 | 10 | 0 | 0.0 | 0.0 | 0.00 | 0.00 | 0.00 | 92 | 1018.8 |
| 20260507101538 | 10 | 0 | 0.0 | 0.0 | 0.00 | 0.00 | 0.00 | 92 | 1018.8 |
| 20260507100738 | 10 | 0 | 0.0 | 0.0 | 0.00 | 0.00 | 0.00 | 92 | 1018.8 |
| 20260507100338 | 10 | 0 | 0.0 | 0.0 | 0.00 | 0.00 | 0.00 | 92 | 1018.8 |
| 20260507095938 | 10 | 0 | 0.0 | 0.0 | 0.00 | 0.00 | 0.00 | 92 | 1018.8 |
| 20260507095538 | 10 | 0 | 0.0 | 0.0 | 0.00 | 0.00 | 0.00 | 92 | 1018.8 |
| 20260507095138 | 10 | 0 | 0.0 | 0.0 | 0.00 | 0.00 | 0.00 | 92 | 1018.8 |
| 20260507094338 | 10 | 0 | 0.0 | 0.0 | 0.00 | 0.00 | 0.00 | 92 | 1018.8 |
| 20260507093938 | 10 | 0 | 0.0 | 0.0 | 0.00 | 0.00 | 0.00 | 92 | 1018.8 |
| 20260507093538 | 10 | 0 | 0.0 | 0.0 | 0.00 | 0.00 | 0.00 | 92 | 1018.8 |
| 20260507093138 | 10 | 0 | 0.0 | 0.0 | 0.00 | 0.00 | 0.00 | 92 | 1018.9 |
| 20260507092738 | 10 | 0 | 0.0 | 0.0 | 0.00 | 0.00 | 0.00 | 92 | 1018.8 |
| 20260507092338 | 10 | 0 | 0.0 | 0.0 | 0.00 | 0.00 | 0.00 | 92 | 1018.9 |
| 20260507091538 | 10 | 0 | 0.0 | 0.0 | 0.00 | 0.00 | 0.00 | 91 | 1019.1 |
| 20260507091138 | 10 | 0 | 0.0 | 0.0 | 0.00 | 0.00 | 0.00 | 91 | 1019.1 |
| 20260507090345 | 10 | 0 | 0.0 | 0.0 | 0.00 | 0.00 | 0.00 | 91 | 1019.1 |
| 20260507085545 | 11 | 0 | 0.0 | 0.0 | 0.00 | 0.00 | 0.00 | 91 | 1019.1 |
| 20260507085145 | 11 | 0 | 0.0 | 0.0 | 0.00 | 0.00 | 0.00 | 91 | 1019.1 |
| 20260507084745 | 11 | 0 | 0.0 | 0.0 | 0.00 | 0.00 | 0.00 | 91 | 1019.2 |
| 20260507084345 | 11 | 0 | 0.0 | 0.0 | 0.00 | 0.00 | 0.00 | 91 | 1019.2 |
| 20260507083545 | 11 | 0 | 0.0 | 0.0 | 0.00 | 0.00 | 0.00 | 91 | 1019.1 |
| 20260507082832 | 11 | 0 | 0.0 | 0.0 | 0.00 | 0.00 | 0.00 | 91 | 1019.2 |
| 20260507082431 | 11 | 0 | 0.0 | 0.0 | 0.00 | 0.00 | 0.00 | 90 | 1019.1 |
| 20260507082031 | 11 | 0 | 0.0 | 0.0 | 0.00 | 0.00 | 0.00 | 90 | 1019.2 |
| 20260507081631 | 11 | 0 | 0.0 | 0.0 | 0.00 | 0.00 | 0.00 | 90 | 1019.2 |
| 20260507081232 | 11 | 0 | 0.0 | 0.0 | 0.00 | 0.00 | 0.00 | 90 | 1019.1 |
| 20260507080432 | 11 | 0 | 0.0 | 3.2 | 0.00 | 0.00 | 0.00 | 90 | 1019.1 |
| 20260507080032 | 11 | 0 | 0.0 | 4.8 | 0.00 | 0.00 | 0.00 | 90 | 1019.1 |
| 20260507075631 | 11 | 258 | 1.6 | 4.8 | 0.00 | 0.00 | 0.00 | 90 | 1019.0 |
| 20260507075231 | 11 | 258 | 1.6 | 4.8 | 0.00 | 0.00 | 0.00 | 89 | 1019.1 |
| 20260507074832 | 11 | 0 | 0.0 | 0.0 | 0.00 | 0.00 | 0.00 | 89 | 1019.1 |
| 20260507074431 | 12 | 0 | 0.0 | 0.0 | 0.00 | 0.00 | 0.00 | 90 | 1019.1 |
| 20260507073631 | 12 | 0 | 0.0 | 0.0 | 0.00 | 0.00 | 0.00 | 89 | 1019.1 |
| 20260507073231 | 12 | 0 | 0.0 | 0.0 | 0.00 | 0.00 | 0.00 | 89 | 1019.2 |
| 20260507072832 | 12 | 0 | 0.0 | 0.0 | 0.00 | 0.00 | 0.00 | 89 | 1019.2 |
| 20260507072031 | 12 | 0 | 0.0 | 0.0 | 0.00 | 0.00 | 0.00 | 88 | 1019.2 |
| 20260507071632 | 12 | 0 | 0.0 | 0.0 | 0.00 | 0.00 | 0.00 | 88 | 1019.2 |
| 20260507070431 | 12 | 0 | 0.0 | 1.6 | 0.00 | 0.00 | 0.00 | 87 | 1019.2 |
| 20260507070031 | 12 | 0 | 0.0 | 1.6 | 0.00 | 0.00 | 0.00 | 88 | 1019.3 |
| 20260507065631 | 12 | 0 | 0.0 | 1.6 | 0.00 | 0.00 | 0.00 | 87 | 1019.2 |
| 20260507064832 | 12 | 0 | 0.0 | 4.8 | 0.00 | 0.00 | 0.00 | 87 | 1019.2 |
| 20260507064431 | 13 | 0 | 0.0 | 4.8 | 0.00 | 0.00 | 0.00 | 87 | 1019.2 |
| 20260507064031 | 13 | 258 | 3.2 | 4.8 | 0.00 | 0.00 | 0.00 | 87 | 1019.2 |
| 20260507063631 | 13 | 258 | 3.2 | 4.8 | 0.00 | 0.00 | 0.00 | 86 | 1019.2 |
| 20260507063231 | 13 | 258 | 1.6 | 3.2 | 0.00 | 0.00 | 0.00 | 86 | 1019.2 |
| 20260507062831 | 13 | 258 | 1.6 | 3.2 | 0.00 | 0.00 | 0.00 | 86 | 1019.2 |
| 20260507062431 | 13 | 0 | 0.0 | 4.8 | 0.00 | 0.00 | 0.00 | 86 | 1019.2 |
| 20260507062032 | 13 | 258 | 1.6 | 4.8 | 0.00 | 0.00 | 0.00 | 86 | 1019.1 |
| 20260507061631 | 13 | 258 | 1.6 | 4.8 | 0.00 | 0.00 | 0.00 | 86 | 1019.1 |
| 20260507061231 | 13 | 258 | 1.6 | 4.8 | 0.00 | 0.00 | 0.00 | 86 | 1019.2 |
| 20260507055948 | 13 | 258 | 1.6 | 4.8 | 0.00 | 0.00 | 0.00 | 86 | 1019.3 |
| 20260507055548 | 13 | 0 | 0.0 | 9.7 | 0.00 | 0.00 | 0.00 | 86 | 1019.3 |
| 20260507055148 | 13 | 0 | 0.0 | 9.7 | 0.00 | 0.00 | 0.00 | 86 | 1019.3 |
| 20260507054748 | 13 | 258 | 4.8 | 9.7 | 0.00 | 0.00 | 0.00 | 87 | 1019.2 |
| 20260507054348 | 13 | 0 | 0.0 | 6.4 | 0.00 | 0.00 | 0.00 | 87 | 1019.2 |
| 20260507053948 | 13 | 0 | 0.0 | 6.4 | 0.00 | 0.00 | 0.00 | 87 | 1019.3 |
| 20260507053442 | 13 | 259 | 1.6 | 6.4 | 0.00 | 0.00 | 0.00 | 88 | 1019.3 |
| 20260507053042 | 13 | 259 | 3.2 | 9.7 | 0.00 | 0.00 | 0.00 | 87 | 1019.4 |
| 20260507052642 | 12 | 259 | 1.6 | 9.7 | 0.00 | 0.00 | 0.00 | 87 | 1019.3 |
| 20260507052242 | 12 | 259 | 4.8 | 9.7 | 0.00 | 0.00 | 0.00 | 87 | 1019.2 |
| 20260507051842 | 13 | 259 | 4.8 | 6.4 | 0.00 | 0.00 | 0.00 | 86 | 1019.2 |
| 20260507051442 | 13 | 0 | 0.0 | 0.0 | 0.00 | 0.00 | 0.00 | 86 | 1019.4 |
| 20260507051042 | 13 | 0 | 0.0 | 0.0 | 0.00 | 0.00 | 0.00 | 85 | 1019.4 |
| 20260507050642 | 13 | 0 | 0.0 | 0.0 | 0.00 | 0.00 | 0.00 | 85 | 1019.4 |
| 20260507050242 | 13 | 0 | 0.0 | 0.0 | 0.00 | 0.00 | 0.00 | 85 | 1019.4 |
| 20260507045442 | 13 | 0 | 0.0 | 0.0 | 0.00 | 0.00 | 0.00 | 84 | 1019.4 |
| 20260507045042 | 13 | 0 | 0.0 | 0.0 | 0.00 | 0.00 | 0.00 | 84 | 1019.3 |
| 20260507044642 | 13 | 0 | 0.0 | 0.0 | 0.00 | 0.00 | 0.00 | 84 | 1019.3 |
| 20260507044242 | 13 | 0 | 0.0 | 0.0 | 0.00 | 0.00 | 0.00 | 83 | 1019.3 |
| 20260507043842 | 14 | 0 | 0.0 | 0.0 | 0.00 | 0.00 | 0.00 | 82 | 1019.3 |
| 20260507043117 | 14 | 0 | 0.0 | 0.0 | 0.00 | 0.00 | 0.00 | 82 | 1019.1 |
| 20260507042317 | 15 | 0 | 0.0 | 0.0 | 0.00 | 0.00 | 0.00 | 81 | 1019.1 |
| 20260507041917 | 15 | 0 | 0.0 | 1.6 | 0.00 | 0.00 | 0.00 | 81 | 1019.0 |
| 20260507041517 | 15 | 0 | 0.0 | 3.2 | 0.00 | 0.00 | 0.00 | 80 | 1019.0 |
| 20260507041117 | 15 | 0 | 0.0 | 3.2 | 0.00 | 0.00 | 0.00 | 79 | 1019.0 |
| 20260507040717 | 15 | 0 | 0.0 | 6.4 | 0.00 | 0.00 | 0.00 | 79 | 1018.9 |
| 20260507040317 | 15 | 0 | 0.0 | 6.4 | 0.00 | 0.00 | 0.00 | 78 | 1018.8 |
| 20260507035917 | 15 | 259 | 3.2 | 6.4 | 0.00 | 0.00 | 0.00 | 78 | 1018.8 |
| 20260507035117 | 16 | 259 | 3.2 | 4.8 | 0.00 | 0.00 | 0.00 | 77 | 1018.6 |
| 20260507034611 | 16 | 259 | 3.2 | 6.4 | 0.00 | 0.00 | 0.00 | 77 | 1018.6 |
| 20260507034211 | 16 | 259 | 1.6 | 6.4 | 0.00 | 0.00 | 0.00 | 76 | 1018.7 |
| 20260507033811 | 16 | 259 | 1.6 | 6.4 | 0.00 | 0.00 | 0.00 | 76 | 1018.6 |
| 20260507033411 | 16 | 259 | 3.2 | 6.4 | 0.00 | 0.00 | 0.00 | 75 | 1018.5 |
| 20260507032739 | 16 | 0 | 0.0 | 4.8 | 0.00 | 0.00 | 0.00 | 75 | 1018.5 |
| 20260507032338 | 17 | 0 | 0.0 | 4.8 | 0.00 | 0.00 | 0.00 | 74 | 1018.4 |
| 20260507031938 | 17 | 259 | 1.6 | 4.8 | 0.00 | 0.00 | 0.00 | 74 | 1018.4 |
| 20260507031538 | 17 | 0 | 0.0 | 3.2 | 0.00 | 0.00 | 0.00 | 73 | 1018.4 |
| 20260507031138 | 17 | 0 | 0.0 | 3.2 | 0.00 | 0.00 | 0.00 | 72 | 1018.2 |
| 20260507030700 | 17 | 0 | 0.0 | 4.8 | 0.00 | 0.00 | 0.00 | 71 | 1018.2 |
| 20260507030259 | 17 | 0 | 0.0 | 4.8 | 0.00 | 0.00 | 0.00 | 71 | 1018.2 |
| 20260507025859 | 17 | 0 | 0.0 | 3.2 | 0.00 | 0.00 | 0.00 | 70 | 1018.1 |
| 20260507025459 | 17 | 0 | 0.0 | 4.8 | 0.00 | 0.00 | 0.00 | 70 | 1018.1 |
| 20260507025059 | 18 | 0 | 0.0 | 12.9 | 0.00 | 0.00 | 0.00 | 70 | 1018.0 |
| 20260507024659 | 18 | 0 | 0.0 | 12.9 | 0.00 | 0.00 | 0.00 | 69 | 1018.0 |
| 20260507024259 | 18 | 258 | 1.6 | 12.9 | 0.00 | 0.00 | 0.00 | 69 | 1017.9 |
| 20260507023859 | 18 | 0 | 0.0 | 9.7 | 0.00 | 0.00 | 0.00 | 68 | 1017.8 |
| 20260507023459 | 18 | 0 | 0.0 | 12.9 | 0.00 | 0.00 | 0.00 | 68 | 1017.8 |
| 20260507023059 | 18 | 258 | 3.2 | 12.9 | 0.00 | 0.00 | 0.00 | 68 | 1017.9 |
| 20260507022659 | 18 | 257 | 6.4 | 12.9 | 0.00 | 0.00 | 0.00 | 67 | 1017.8 |
| 20260507022259 | 19 | 257 | 4.8 | 12.9 | 0.00 | 0.00 | 0.00 | 67 | 1017.7 |
| 20260507021859 | 19 | 257 | 1.6 | 12.9 | 0.00 | 0.00 | 0.00 | 67 | 1017.7 |
| 20260507021459 | 19 | 256 | 6.4 | 12.9 | 0.00 | 0.00 | 0.00 | 66 | 1017.7 |
| 20260507021059 | 19 | 255 | 4.8 | 12.9 | 0.00 | 0.00 | 0.00 | 65 | 1017.7 |
| 20260507020659 | 20 | 255 | 4.8 | 12.9 | 0.00 | 0.00 | 0.00 | 65 | 1017.6 |
| 20260507020259 | 20 | 249 | 4.8 | 11.3 | 0.00 | 0.00 | 0.00 | 65 | 1017.6 |
| 20260507015859 | 20 | 250 | 3.2 | 11.3 | 0.00 | 0.00 | 0.00 | 65 | 1017.6 |
| 20260507015459 | 20 | 250 | 4.8 | 12.9 | 0.00 | 0.00 | 0.00 | 65 | 1017.6 |
| 20260507015059 | 20 | 250 | 4.8 | 12.9 | 0.00 | 0.00 | 0.00 | 64 | 1017.5 |
| 20260507014659 | 20 | 254 | 6.4 | 12.9 | 0.00 | 0.00 | 0.00 | 63 | 1017.5 |
| 20260507014259 | 20 | 254 | 8.0 | 14.5 | 0.00 | 0.00 | 0.00 | 62 | 1017.4 |
| 20260507013859 | 21 | 258 | 8.0 | 14.5 | 0.00 | 0.00 | 0.00 | 62 | 1017.4 |
| 20260507013459 | 21 | 257 | 4.8 | 14.5 | 0.00 | 0.00 | 0.00 | 62 | 1017.4 |
| 20260507013059 | 21 | 258 | 6.4 | 12.9 | 0.00 | 0.00 | 0.00 | 61 | 1017.4 |
| 20260507012259 | 21 | 257 | 6.4 | 12.9 | 0.00 | 0.00 | 0.00 | 61 | 1017.4 |
| 20260507011859 | 21 | 0 | 0.0 | 12.9 | 0.00 | 0.00 | 0.00 | 60 | 1017.5 |
| 20260507011459 | 21 | 254 | 6.4 | 12.9 | 0.00 | 0.00 | 0.00 | 61 | 1017.5 |
| 20260507011059 | 21 | 250 | 6.4 | 19.3 | 0.00 | 0.00 | 0.00 | 60 | 1017.5 |
| 20260507010659 | 22 | 260 | 6.4 | 19.3 | 0.00 | 0.00 | 0.00 | 59 | 1017.6 |
| 20260507010259 | 22 | 276 | 6.4 | 14.5 | 0.00 | 0.00 | 0.00 | 59 | 1017.6 |
| 20260507005859 | 22 | 279 | 8.0 | 14.5 | 0.00 | 0.00 | 0.00 | 58 | 1017.6 |
| 20260507005459 | 22 | 281 | 8.0 | 14.5 | 0.00 | 0.00 | 0.00 | 59 | 1017.6 |
| 20260507004659 | 22 | 263 | 4.8 | 14.5 | 0.00 | 0.00 | 0.00 | 58 | 1017.7 |
| 20260507004259 | 22 | 259 | 8.0 | 14.5 | 0.00 | 0.00 | 0.00 | 57 | 1017.6 |
| 20260507003843 | 22 | 263 | 3.2 | 12.9 | 0.00 | 0.00 | 0.00 | 57 | 1017.6 |
| 20260507003443 | 22 | 253 | 4.8 | 12.9 | 0.00 | 0.00 | 0.00 | 58 | 1017.6 |
| 20260507003043 | 22 | 236 | 4.8 | 12.9 | 0.00 | 0.00 | 0.00 | 59 | 1017.6 |
| 20260507002643 | 22 | 221 | 4.8 | 12.9 | 0.00 | 0.00 | 0.00 | 57 | 1017.7 |
| 20260507002243 | 22 | 245 | 4.8 | 17.7 | 0.00 | 0.00 | 0.00 | 58 | 1017.6 |
| 20260507001843 | 22 | 234 | 4.8 | 17.7 | 0.00 | 0.00 | 0.00 | 59 | 1017.6 |
| 20260507001443 | 22 | 248 | 9.7 | 16.1 | 0.00 | 0.00 | 0.00 | 58 | 1017.7 |
| 20260507001043 | 22 | 253 | 4.8 | 12.9 | 0.00 | 0.00 | 0.00 | 58 | 1017.6 |
| 20260507000643 | 22 | 251 | 3.2 | 14.5 | 0.00 | 0.00 | 0.00 | 58 | 1017.6 |
| 20260507000243 | 22 | 263 | 6.4 | 16.1 | 0.00 | 0.00 | 0.00 | 57 | 1017.6 |
| 20260506235843 | 22 | 250 | 6.4 | 16.1 | 0.00 | 0.00 | 0.00 | 56 | 1017.6 |
| 20260506235443 | 22 | 273 | 6.4 | 16.1 | 0.00 | 0.00 | 0.00 | 58 | 1017.6 |
| 20260506235043 | 22 | 233 | 6.4 | 17.7 | 0.00 | 0.00 | 0.00 | 59 | 1017.6 |
| 20260506234643 | 22 | 219 | 4.8 | 17.7 | 0.00 | 0.00 | 0.00 | 57 | 1017.6 |
| 20260506233443 | 22 | 239 | 9.7 | 16.1 | 0.00 | 0.00 | 0.00 | 57 | 1017.6 |
| 20260506233043 | 22 | 247 | 4.8 | 17.7 | 0.00 | 0.00 | 0.00 | 56 | 1017.6 |
| 20260506232643 | 22 | 233 | 6.4 | 17.7 | 0.00 | 0.00 | 0.00 | 57 | 1017.6 |
| 20260506232243 | 22 | 232 | 9.7 | 17.7 | 0.00 | 0.00 | 0.00 | 58 | 1017.6 |
| 20260506231843 | 22 | 227 | 8.0 | 14.5 | 0.00 | 0.00 | 0.00 | 57 | 1017.6 |
| 20260506231443 | 22 | 249 | 6.4 | 14.5 | 0.00 | 0.00 | 0.00 | 57 | 1017.7 |
| 20260506230730 | 22 | 226 | 9.7 | 17.7 | 0.00 | 0.00 | 0.00 | 57 | 1017.8 |
| 20260506230330 | 22 | 253 | 8.0 | 17.7 | 0.00 | 0.00 | 0.00 | 58 | 1017.8 |
| 20260506225930 | 22 | 232 | 8.0 | 17.7 | 0.00 | 0.00 | 0.00 | 59 | 1017.9 |
| 20260506225530 | 22 | 229 | 3.2 | 16.1 | 0.00 | 0.00 | 0.00 | 58 | 1017.9 |
| 20260506225130 | 22 | 235 | 9.7 | 16.1 | 0.00 | 0.00 | 0.00 | 59 | 1018.0 |
| 20260506224730 | 22 | 219 | 8.0 | 14.5 | 0.00 | 0.00 | 0.00 | 58 | 1018.0 |
| 20260506224330 | 22 | 211 | 6.4 | 17.7 | 0.00 | 0.00 | 0.00 | 58 | 1018.1 |
| 20260506223930 | 22 | 229 | 4.8 | 17.7 | 0.00 | 0.00 | 0.00 | 58 | 1018.1 |
| 20260506222730 | 22 | 230 | 12.9 | 19.3 | 0.00 | 0.00 | 0.00 | 57 | 1018.2 |
| 20260506222330 | 22 | 277 | 4.8 | 17.7 | 0.00 | 0.00 | 0.00 | 59 | 1018.3 |